This is the latest recevied weather packets stored in our database for station/object IU0KRR-10. If no packets are shown the sender has not sent any weather packets the latest 10 day(s).
| Time | Temp. | Humidity | Pressure | Rain* | Wind** | Luminosity | Snow |
|---|---|---|---|---|---|---|---|
| 1787876455 | 25.56° C | 39% | 879.3 hPa | - | - | - | - |
| 1787876401 | 25.56° C | 39% | 879.3 hPa | - | - | - | - |
| 1787875501 | 25.56° C | 39% | 879.5 hPa | - | - | - | - |
| 1787874600 | 25° C | 41% | 879.7 hPa | - | - | - | - |
| 1787873699 | 25.56° C | 41% | 879.7 hPa | - | - | - | - |
| 1787872799 | 25.56° C | 40% | 879.7 hPa | - | - | - | - |
| 1787871899 | 25° C | 41% | 879.6 hPa | - | - | - | - |
| 1787870998 | 25° C | 42% | 879.5 hPa | - | - | - | - |
| 1787870136 | 25° C | 42% | 879.6 hPa | - | - | - | - |
| 1787870098 | 25° C | 42% | 879.6 hPa | - | - | - | - |
| 1787869197 | 25° C | 45% | 879.5 hPa | - | - | - | - |
| 1787868296 | 25° C | 46% | 879.6 hPa | - | - | - | - |
| 1787867395 | 25° C | 46% | 880 hPa | - | - | - | - |
| 1787866495 | 25° C | 43% | 880.1 hPa | - | - | - | - |
| 1787865595 | 24.44° C | 46% | 880.2 hPa | - | - | - | - |
| 1787864695 | 24.44° C | 47% | 880.1 hPa | - | - | - | - |
| 1787863896 | 24.44° C | 50% | 880.2 hPa | - | - | - | - |
| 1787863794 | 24.44° C | 50% | 880.2 hPa | - | - | - | - |
| 1787862935 | 24.44° C | 51% | 880.2 hPa | - | - | - | - |
| 1787862893 | 24.44° C | 51% | 880.2 hPa | - | - | - | - |
| 1787862051 | 24.44° C | 51% | 880 hPa | - | - | - | - |
| 1787861992 | 24.44° C | 51% | 880 hPa | - | - | - | - |
| 1787861127 | 23.89° C | 50% | 879.9 hPa | - | - | - | - |
| 1787861092 | 23.89° C | 50% | 879.9 hPa | - | - | - | - |
| 1787860236 | 23.89° C | 53% | 879.7 hPa | - | - | - | - |
* Rain since midnight (hover to see other rain measurements)
** Current wind speed in m/s (hover to see current wind gust speed)